Погода в Висленеве Острове

Россия / Новгородская область     58°42′07″N   33°05′08″E
темп.,
°C
ветер,
м/с
пор.,
м/с
влажн.,
%
обл.,
%
осадки,
мм/ч
давл.,
гПа
погр.,
м
28 ноября, вс
вс2800:00−1св41098100 1.7 996515
03:00−2ссв4997100 2.9 995436
06:00−3ссв389699 0.7 995371
09:00−3ссв2597100 1.6 996283
12:00−3с1295100 0.9 999237
15:00−3з259583 1.4 1000385
18:00−5з259791 0.1 1003184
21:00−4зсз1396100 0.2 1005143
29 ноября, пн
пн2900:00−4с1195100 0.1 100773
03:00−5всв239696 0.1 1008139
06:00−5всв2696100 0.0 1007192
09:00−7всв3996100 0.1 1006228
12:00−5всв41193100 0.1 1005324
15:00−4всв41295100 0.4 1001403
18:00−4всв51396100 1.1 998450
21:00−2в51494100 3.2 993466
30 ноября, вт
вт3000:00+1вюв51398100 0.2 990466
03:00+2вюв41299100 0.3 987478
06:00+1в41199100 0.1 983471
09:00+1всв31098100 0.1 980470
12:000св2698100 0.4 978364
15:00−1с2497100 0.4 976288
18:00−1сз259899 0.3 976311
21:00−2зсз2797100 0.5 976438
1 декабря, ср
ср100:00−2зсз3997100 0.6 978685
03:00−4зсз51194100 1.3 980571
06:00−5з51093100 0.3 982737
09:00−6з51093100 0.6 985775
12:00−6з51091100 0.1 987772
15:00−6з4990100 0.3 989929
18:00−7з51192100 0.1 991680
21:00−8зюз41195100 0.2 991423
2 декабря, чт
чт200:00−8зюз4119485 0.0 992336
03:00−9юз389588 0.1 993285
06:00−10ю2597100 0.0 992137
09:00−7юв2791100 0.0 991266
12:00−6вюв4994100 0.2 989394
15:00−5вюв499290 0.7 987463
18:00−5вюв41095100 1.1 986363
21:00−1ююв21099100 2.4 985546